Location: Staunton
(38.1490°N, 79.0720°W)
Time: 22:11:31
(UTC-05:00)

ISS - Pass Details

Date: 26 February 2021
Orbit: 417 x 422 km, 51.6° (Epoch: 26 February)

Event Time Altitude Azimuth Distance (km) Brightness Sun altitude
Exits shadow 05:49:35 11° 324° (NW) 1,442 -1.4 -13.0°
Maximum altitude 05:50:38 12° 343° (NNW) 1,372 -1.3 -12.8°
Drops below altitude 10° 05:52:04 10° 8° (N) 1,497 -0.9 -12.5°
Sets 05:55:15 0° 41° (NE) 2,363 0.7 -11.9°
